weather.gov     
National Weather Service

Regional Weather Roundup
NWS Homepage
This page is being discontinued on March 12, 2014.
The same data is available at this site. Please update your bookmarks.
Thank you, and we apologize for the inconvenience.
Please send an email to SR-SRH.Webmaster@noaa.gov with any concerns.


Current Version
Previous Version:    01  02  03  04  05  06  07  08  09  10  11  12  13  14  15  16  17  18  19  20  21  22  23  24  25  26  27  28  29  30  
   31  32  33  34  35  36  37  38  39  40  41  42  43  44  45  46  47  48  49  50  51  52  53  54  55  56  57  58  59  60  
[Printable]
618
ASUS44 KLIX 231910
RWRLA
LOUISIANA WEATHER ROUNDUP
NATIONAL WEATHER SERVICE NEW ORLEANS LA
200 PM CDT SAT AUG 23 2014

NOTE: "FAIR" INDICATES FEW OR NO CLOUDS BELOW 12,000 FEET WITH NO
      SIGNIFICANT WEATHER AND/OR OBSTRUCTIONS TO VISIBILITY.
      SKY/WX - SKY CONDITION AND SIGNIFICANT WEATHER.
      TMP - AIR TEMPERATURE.    DP   - DEWPOINT TEMPERATURE.
      RH  - RELATIVE HUMIDITY.  PRES - PRESSURE.
      HX  - HEAT INDEX.         WCI  - WIND CHILL INDEX.

*  THESE STATIONS ARE NOT NWS OR FAA STATIONS AND ARE NOT UNDER
   NWS QUALITY CONTROL.

LAZ040-048-061>063-065-066-069-232000-
SOUTHEAST LOUISIANA

CITY           SKY/WX    TMP DP  RH WIND       PRES   REMARKS
N.O. AUDUBON     N/A     98  78  53 MISG        N/A  HX 115
N.O. INTL ARPT MOSUNNY   94  74  52 N7        30.00F HX 104
N.O. LAKEFRONT SUNNY     91  78  65 W8        30.00F HX 106
N.O. DOWNTOWN* FAIR      95  72  46 N6        30.00F HX 103
SLIDELL        MOSUNNY   96  72  45 VRB5      29.98F HX 104
BATON ROUGE    PTSUNNY   90  74  59 N3        30.01F HX  99
BOOTHVILLE     SUNNY     92  76  59 VRB6      30.01F HX 104
BELLE CHASSE   PTSUNNY   95  72  47 CALM      29.98F HX 103
BOGALUSA*      FAIR      96  72  46 CALM      30.01F HX 104
GALLIANO*      NOT AVBL
NEW ROADS*     FAIR      91  75  58 N5        30.02F HX 101
GONZALES*      FAIR      92  76  60 CALM      30.00F HX 104
HAMMOND*       SUNNY     99  66  34 W6        30.01F HX 102
HOUMA*         MOSUNNY   97  70  41 NE6       30.00F HX 103
PORT FOURCHON* CLEAR     93  73  52 E7        30.02F HX 102

$$

LAZ041-044-053-054-232000-
SOUTHWEST LOUISIANA

CITY           SKY/WX    TMP DP  RH WIND       PRES   REMARKS
LAKE CHARLES   MOSUNNY   92  72  51 CALM      30.00F HX  99
LAFAYETTE      PTSUNNY   93  74  53 MISG      30.01F HX 103
PATTERSON      MOSUNNY   93  75  55 N6        30.04F HX 104
SALT POINT       N/A     91  78  65 VRB5      30.01F HX 106
NEW IBERIA     MOSUNNY   95  75  52 NE7       30.02F HX 107
CHENAULT AIRPK MOSUNNY   93  72  49 CALM      30.02F HX 100

$$

LAZ027-028-232000-
CENTRAL LOUISIANA

CITY           SKY/WX    TMP DP  RH WIND       PRES   REMARKS
FORT POLK      MOSUNNY   93  70  46 E3        30.02F HX  99
ALEXANDRIA INT PTSUNNY   95  74  50 VRB3      30.00F HX 105
ALEXANDRIA     SUNNY     94  72  48 CALM      30.02F HX 102

$$

LAZ001-002-232000-
NORTHWEST LOUISIANA

CITY           SKY/WX    TMP DP  RH WIND       PRES   REMARKS
SHREVEPORT     MOSUNNY   95  68  41 VRB7      30.00F HX  99
BARKSDALE AFB  SUNNY     96  66  38 SE8       30.01F HX  99
DTN SHREVEPORT SUNNY     95  66  38 W7        30.00F HX  98

$$

LAZ014-016-232000-
NORTHEAST LOUISIANA

CITY           SKY/WX    TMP DP  RH WIND       PRES   REMARKS
MONROE         MOSUNNY   93  71  48 W5        30.02F HX 100
TALLULAH       SUNNY     94  71  47 CALM      30.01F HX 101

$$





U.S. Dept. of Commerce
NOAA National Weather Service
1325 East West Highway
Silver Spring, MD 20910
E-mail: w-nws.webmaster@noaa.gov
Page last modified: May 16, 2007
NATIONAL WEATHER SERVICE: for Safety, for Work, for Fun - FOR LIFE